This is the latest recevied weather packets stored in our database for station/object W3EJE-13. If no packets are shown the sender has not sent any weather packets the latest 10 day(s).
| Time | Temp. | Humidity | Pressure | Rain* | Wind** | Luminosity | Snow |
|---|---|---|---|---|---|---|---|
| 1777045253 | 21.67° C | 60% | 1012.6 hPa | 0 mm | - | 730 W/m² | - |
| 1777044950 | 22.22° C | 59% | 1012.8 hPa | 0 mm | - | 729 W/m² | - |
| 1777044645 | 22.22° C | 58% | 1013 hPa | 0 mm | - | 152 W/m² | - |
| 1777044342 | 22.22° C | 56% | 1012.7 hPa | 0 mm | - | 204 W/m² | - |
| 1777044037 | 21.67° C | 57% | 1013.1 hPa | 0 mm | - | 752 W/m² | - |
| 1777043734 | 21.67° C | 58% | 1012.8 hPa | 0 mm | - | 668 W/m² | - |
| 1777043431 | 21.67° C | 60% | 1012.7 hPa | 0 mm | - | 739 W/m² | - |
| 1777043126 | 21.67° C | 60% | 1013 hPa | 0 mm | - | 209 W/m² | - |
| 1777042822 | 21.67° C | 59% | 1012.8 hPa | 0 mm | - | 785 W/m² | - |
| 1777042518 | 21.67° C | 61% | 1013 hPa | 0 mm | - | 304 W/m² | - |
| 1777042214 | 21.67° C | 61% | 1012.9 hPa | 0 mm | - | 741 W/m² | - |
| 1777041910 | 21.67° C | 59% | 1013 hPa | 0 mm | - | 728 W/m² | - |
| 1777041607 | 21.67° C | 59% | 1013 hPa | 0 mm | - | 640 W/m² | - |
| 1777041303 | 21.11° C | 60% | 1013.2 hPa | 0 mm | - | 627 W/m² | - |
| 1777041000 | 21.11° C | 60% | 1013 hPa | 0 mm | - | 624 W/m² | - |
| 1777040695 | 21.11° C | 62% | 1013 hPa | 0 mm | - | 547 W/m² | - |
| 1777040394 | 21.11° C | 62% | 1012.9 hPa | 0 mm | - | 532 W/m² | - |
| 1777040090 | 21.11° C | 63% | 1013.2 hPa | 0 mm | - | 541 W/m² | - |
| 1777039786 | 21.11° C | 62% | 1013.2 hPa | 0 mm | - | 558 W/m² | - |
| 1777039481 | 21.11° C | 63% | 1013.1 hPa | 0 mm | - | 559 W/m² | - |
| 1777039177 | 20.56° C | 64% | 1013.5 hPa | 0 mm | - | 534 W/m² | - |
| 1777038876 | 20.56° C | 63% | 1013.4 hPa | 0 mm | - | 546 W/m² | - |
| 1777038573 | 20° C | 64% | 1013.4 hPa | 0 mm | - | 521 W/m² | - |
| 1777038272 | 20° C | 66% | 1013.5 hPa | 0 mm | - | 518 W/m² | - |
| 1777037963 | 20° C | 65% | 1013.4 hPa | 0 mm | - | 79 W/m² | - |
* Rain latest hour (hover to see other rain measurements)
** Current wind speed in m/s (hover to see current wind gust speed)